カタログに戻る

STARLINK-36355

運用中通信SSO
NORAD 68298·PAYLOAD·🇺🇸 United States

打ち上げ Mar 20, 2026 から Vandenberg Space Force Base

Loading…

次のパス (今後24時間)

TLE

最新Source: CelesTrak SupGP

元期: Sep 14, 2026, 23:07 UTC

1 68298C 26057E   26257.96368056 -.00036926  00000+0 -11458-2 0  2573
2 68298  97.2856  23.3946 0000927  96.2642 211.6373 15.33470750    15

AllMySatでSTARLINK-36355をリアルタイム追跡

Download on the App Store